TimeCDT,TemperatureF,Dew PointF,Humidity,Sea Level PressureIn,VisibilityMPH,Wind Direction,Wind SpeedMPH,Gust SpeedMPH,PrecipitationIn,Events,Conditions,WindDirDegrees,DateUTC
12:58 AM,68.2,66.2,93,30.19,10.0,SSE,6.9,-,N/A,,Clear,150,2013-08-25 05:58:00
1:58 AM,67.5,66.0,95,30.19,10.0,SSE,5.8,-,N/A,,Clear,150,2013-08-25 06:58:00
2:58 AM,67.6,66.7,97,30.19,10.0,SSE,6.9,-,N/A,,Clear,150,2013-08-25 07:58:00
3:58 AM,65.7,65.7,100,30.20,10.0,SE,5.8,-,N/A,,Clear,140,2013-08-25 08:58:00
4:58 AM,65.7,65.7,100,30.21,9.0,SSE,4.6,-,N/A,,Clear,150,2013-08-25 09:58:00
5:58 AM,65.8,65.8,100,30.24,9.0,SSE,5.8,-,N/A,,Clear,150,2013-08-25 10:58:00
6:58 AM,65.8,65.8,100,30.25,7.0,SE,4.6,-,N/A,,Clear,140,2013-08-25 11:58:00
7:58 AM,69.3,69.3,100,30.25,10.0,SSE,5.8,-,N/A,,Clear,160,2013-08-25 12:58:00
8:58 AM,74.5,69.3,84,30.25,10.0,SSE,8.1,-,N/A,,Clear,160,2013-08-25 13:58:00
9:58 AM,79.5,70.7,74,30.25,10.0,SSE,9.2,-,N/A,,Clear,160,2013-08-25 14:58:00
10:58 AM,83.3,72.3,69,30.25,10.0,Variable,5.8,-,N/A,,Clear,0,2013-08-25 15:58:00
11:58 AM,86.9,72.1,61,30.24,10.0,Variable,3.5,-,N/A,,Clear,0,2013-08-25 16:58:00
12:58 PM,86.7,67.1,52,30.22,10.0,South,4.6,-,N/A,,Partly Cloudy,180,2013-08-25 17:58:00
1:58 PM,87.8,68.5,53,30.21,10.0,Variable,5.8,-,N/A,,Partly Cloudy,0,2013-08-25 18:58:00
2:58 PM,88.2,68.2,51,30.19,10.0,SE,8.1,-,N/A,,Clear,130,2013-08-25 19:58:00
3:58 PM,89.1,66.6,47,30.18,10.0,SSE,8.1,-,N/A,,Clear,150,2013-08-25 20:58:00
4:58 PM,89.2,65.7,45,30.17,10.0,Variable,4.6,-,N/A,,Clear,0,2013-08-25 21:58:00
5:58 PM,88.3,66.6,48,30.18,10.0,SE,5.8,-,N/A,,Clear,140,2013-08-25 22:58:00
6:58 PM,86.4,70.3,59,30.17,10.0,SSE,4.6,-,N/A,,Clear,150,2013-08-25 23:58:00
7:58 PM,79.3,74.3,84,30.18,10.0,SSE,2.3,-,N/A,,Clear,150,2013-08-26 00:58:00
8:58 PM,77.2,72.3,85,30.19,10.0,SE,5.8,-,N/A,,Clear,130,2013-08-26 01:58:00
9:58 PM,75.6,73.9,95,30.20,10.0,SE,8.1,-,N/A,,Clear,140,2013-08-26 02:58:00
10:58 PM,73.4,73.2,99,30.21,10.0,SSE,5.8,-,N/A,,Clear,150,2013-08-26 03:58:00
11:58 PM,74.3,73.6,98,30.21,10.0,South,4.6,-,N/A,,Clear,170,2013-08-26 04:58:00